This is the latest recevied weather packets stored in our database for station/object KK7ISX. If no packets are shown the sender has not sent any weather packets the latest 10 day(s).
| Time | Temp. | Humidity | Pressure | Rain* | Wind** | Luminosity | Snow |
|---|---|---|---|---|---|---|---|
| 1777524700 | 10.56° C | 60% | 1019.6 hPa | 0 mm | - | 0 W/m² | - |
| 1777524399 | 11.11° C | 60% | 1019.6 hPa | 0 mm | - | 0 W/m² | - |
| 1777524094 | 12.22° C | 57% | 1019.7 hPa | 0 mm | - | 0 W/m² | - |
| 1777523791 | 12.22° C | 55% | 1019.6 hPa | 0 mm | - | 0 W/m² | - |
| 1777523487 | 12.78° C | 53% | 1019.5 hPa | 0 mm | - | 0 W/m² | - |
| 1777523183 | 13.33° C | 52% | 1019.5 hPa | 0 mm | - | 0 W/m² | - |
| 1777522879 | 13.89° C | 50% | 1019.6 hPa | 0 mm | - | 0 W/m² | - |
| 1777522577 | 13.89° C | 50% | 1019.5 hPa | 0 mm | - | 0 W/m² | - |
| 1777522274 | 13.89° C | 50% | 1019.4 hPa | 0 mm | - | 0 W/m² | - |
| 1777521970 | 13.89° C | 49% | 1019.5 hPa | 0 mm | - | 0 W/m² | - |
| 1777521668 | 14.44° C | 49% | 1019.2 hPa | 0 mm | - | 0 W/m² | - |
| 1777521364 | 14.44° C | 48% | 1019.2 hPa | 0 mm | - | 0 W/m² | - |
| 1777521061 | 14.44° C | 48% | 1019.4 hPa | 0 mm | - | 0 W/m² | - |
| 1777520758 | 14.44° C | 47% | 1019.2 hPa | 0 mm | - | 0 W/m² | - |
| 1777520455 | 15° C | 47% | 1019.4 hPa | 0 mm | - | 0 W/m² | - |
| 1777520152 | 15° C | 46% | 1019 hPa | 0 mm | - | 0 W/m² | - |
| 1777519850 | 15° C | 46% | 1019 hPa | 0 mm | - | 0 W/m² | - |
| 1777519547 | 15° C | 45% | 1018.9 hPa | 0 mm | - | 0 W/m² | - |
| 1777519243 | 15.56° C | 45% | 1019 hPa | 0 mm | - | 0 W/m² | - |
| 1777518939 | 15.56° C | 45% | 1018.9 hPa | 0 mm | - | 0 W/m² | - |
| 1777518635 | 15.56° C | 44% | 1018.9 hPa | 0 mm | - | 0 W/m² | - |
| 1777518332 | 16.11° C | 43% | 1018.9 hPa | 0 mm | - | 0 W/m² | - |
| 1777518022 | 16.11° C | 43% | 1018.9 hPa | 0 mm | - | 1 W/m² | - |
| 1777517719 | 16.11° C | 42% | 1018.8 hPa | 0 mm | - | 1 W/m² | - |
| 1777517414 | 16.67° C | 41% | 1018.7 hPa | 0 mm | - | 2 W/m² | - |
* Rain latest hour (hover to see other rain measurements)
** Current wind speed in m/s (hover to see current wind gust speed)